fleetmatics.com alexa rank chart, fleetmatics.com alexa rank daily changes

fleetmatics.com alexa rank chart, fleetmatics.com alexa rank daily changes

fleetmatics.com
Actual rank:
44 354

RANK HISTORY

Date Rank Diff
2017/07/21 44 354 -20
2017/07/20 44 374 -1 069
2017/07/19 45 443 -538
2017/07/18 45 981 +1 129
2017/07/17 44 852 +1 011
2017/07/16 43 841 -11
2017/07/15 43 852 -143
2017/07/14 43 995 +70
2017/07/13 43 925 -1 148
2017/07/12 45 073 -1 046
2017/07/11 46 119 +733
2017/07/10 45 386 +1 157
2017/07/09 44 229 -697
2017/07/08 44 926 +112
2017/07/07 44 814 -184
2017/07/06 44 998 -745
2017/07/05 45 743 -1 191
2017/07/04 46 934 +965
2017/07/03 45 969 +856
2017/07/02 45 113 -318
2017/07/01 45 431 -1 017
2017/06/30 46 448 -1 314
2017/06/29 47 762 -1 170
2017/06/28 48 932 -45
2017/06/27 48 977 +984
2017/06/26 47 993 +1 204
2017/06/25 46 789 -177
2017/06/24 46 966 +1
2017/06/23 46 965 -1 037
2017/06/22 48 002 -1 434
2017/06/21 49 436 +121
2017/06/20 49 315 +1 158
2017/06/19 48 157 +836
2017/06/18 47 321 -44
2017/06/17 47 365 -26
2017/06/16 47 391 -1 245
2017/06/15 48 636 -790
2017/06/14 49 426 +445
2017/06/13 48 981 +1 105
2017/06/12 47 876 +943
2017/06/11 46 933 +138
2017/06/10 46 795 -213
2017/06/09 47 008 -1 000
2017/06/08 48 008 -1 700
2017/06/07 49 708 -23
2017/06/06 49 731 +1 367
2017/06/05 48 364 +1 004
2017/06/04 47 360 -516
2017/06/03 47 876 -354
2017/06/02 48 230 -1 078
2017/06/01 49 308 -416
2017/05/31 49 724 +44
2017/05/30 49 680 +814
2017/05/29 48 866 +955
2017/05/28 47 911 +174
2017/05/27 47 737 -165
2017/05/26 47 902 -338
2017/05/25 48 240 -1 346
2017/05/24 49 586 -1 608
2017/05/23 51 194 +681
2017/05/22 50 513

WIDGET FOR YOUR SITE

DOMAINS WITH THE NEAREST RANK

Domain Rank
humankinetics.com 44 349
mega-p2p.net 44 350
inkthemes.com 44 351
welltrainedmind.com 44 352
myloancare.in 44 353
fleetmatics.com 44 354
vqpv.biz 44 355
youngheaven.com 44 356
movilcelular.es 44 357
ashesofcreation.com 44 358
astroawani.com 44 359

DOMAINS WITH THE NEAREST RANK BY TLD .com

Domain Rank
pldsrj.com 44 347
bedbugger.com 44 348
humankinetics.com 44 349
inkthemes.com 44 351
welltrainedmind.com 44 352
fleetmatics.com 44 354
youngheaven.com 44 356
ashesofcreation.com 44 358
astroawani.com 44 359
laughinglust.com 44 361
generosity.com 44 362